Location: The Saddle
(36.8333°N, 80.3417°W)
Time: 04:10:41
(UTC-04:00)

Tiangong - Visible Passes

Search period start: 24 September 2023 00:00
Search period end: 04 October 2023 00:00
Orbit: 374 x 385 km, 41.5° (Epoch: 23 September)

Date Brightness Start Highest point End Pass type
(mag) Time Alt. Az. Time Alt. Az. Time Alt. Az.
26 Sep 0.5 21:01:22 10° SW 21:01:59 14° SW 21:01:59 14° SW visible
27 Sep -0.6 20:00:36 10° SSW 20:02:58 20° SE 20:03:59 17° ESE visible
28 Sep -2.2 20:34:53 10° WSW 20:37:54 65° SSE 20:37:54 65° SSE visible
29 Sep -1.3 19:33:38 10° SW 19:36:31 34° SSE 19:39:24 10° E visible
29 Sep 0.2 21:10:08 10° W 21:11:39 25° W 21:11:39 25° W visible
30 Sep -2.1 20:08:25 10° WSW 20:11:32 77° NNW 20:13:08 26° ENE visible
01 Oct -1.0 20:43:47 10° W 20:46:35 38° NNW 20:46:35 38° NNW visible
02 Oct -1.6 19:41:54 10° W 19:44:58 52° NNW 19:47:50 11° ENE visible
02 Oct 1.0 21:19:08 10° WNW 21:19:55 15° WNW 21:19:55 15° WNW visible
03 Oct -0.9 20:17:14 10° WNW 20:20:08 33° N 20:21:05 27° NNE visible
